Ludington, MI

9:55 PM EDT on July 22, 2017 (GMT -0400)
Mason County

Weather History for KLDM - November, 2013

Change the Weather History Date:

Saturday, November 9, 2013

  Actual Average Record
Temperature  
Mean Temperature 46 °F -  
Max Temperature 51 °F 46 °F 65 °F (1975)
Min Temperature 41 °F 32 °F 17 °F (2003)
Degree Days  
Heating Degree Days 19    
Moisture  
Dew Point 37 °F    
Average Humidity 69    
Maximum Humidity 84    
Minimum Humidity 56    
Precipitation  
Precipitation 0.11 in - - ()
Sea Level Pressure  
Sea Level Pressure 29.82 in    
Wind  
Wind Speed 12 mph (WSW)    
Max Wind Speed 23 mph    
Max Gust Speed 31 mph    
Visibility 10 miles    
Events Rain    
Averages and records for this station are not official NWS values.
T = Trace of Precipitation, MM = Missing Value Source: NWS Daily Summary

Daily Weather History Graph

Daily Weather History Graph

Search for Another Location

Airport or City:

Trip Planner

Search our weather history database for the weather conditions in past years. The results will help you decide how hot, cold, wet, or windy it might be!

Date:

Astronomy

Nov. 09, 2013 Rise Set
Actual Time 7:32 AM EST 5:25 PM EST
Civil Twilight 7:02 AM EST 5:56 PM EST
Nautical Twilight 6:27 AM EST 6:30 PM EST
Astronomical Twilight 5:53 AM EST 7:04 PM EST
Moon 1:07 PM EST (11/9) 11:58 PM EST (11/9)
Length of Visible Light 10h 53m
Length of Day
9h 52m
Waxing Crescent, 44% of the Moon is Illuminated
Nov 9
Waxing Crescent
Nov 10
First Quarter
Nov 17
Full
Nov 25
Last Quarter
Dec 2
New

Hourly Weather History & Observations

Time (EST) Temp. Windchill Dew Point Humidity Pressure Visibility Wind Dir Wind Speed Gust Speed Precip Events Conditions
12:15 AM 42.1 °F 37.1 °F 32.0 °F 67% 29.99 in 10.0 mi SSE 8.1 mph - N/A   Mostly Cloudy
12:35 AM 42.1 °F 36.6 °F 32.0 °F 67% 29.98 in 10.0 mi SSE 9.2 mph - N/A   Overcast
12:55 AM 42.1 °F 36.6 °F 31.8 °F 67% 29.96 in 10.0 mi SSE 9.2 mph 16.1 mph N/A   Overcast
1:15 AM 42.3 °F 36.8 °F 31.6 °F 66% 29.95 in 10.0 mi SE 9.2 mph - N/A   Overcast
1:35 AM 43.2 °F 37.0 °F 32.0 °F 65% 29.93 in 10.0 mi SSE 11.5 mph 17.3 mph N/A   Overcast
1:55 AM 42.6 °F 36.3 °F 32.0 °F 66% 29.90 in 10.0 mi SSE 11.5 mph 16.1 mph N/A Rain Light Rain
2:15 AM 41.5 °F 36.4 °F 33.6 °F 73% 29.90 in 7.0 mi SSE 8.1 mph - N/A Rain Light Rain
2:35 AM 41.0 °F 35.8 °F 34.2 °F 77% 29.88 in 7.0 mi SSE 8.1 mph - 0.01 in Rain Light Rain
2:55 AM 41.0 °F 36.4 °F 35.6 °F 81% 29.87 in 5.0 mi SSE 6.9 mph - 0.03 in Rain Light Rain
3:15 AM 41.0 °F 34.7 °F 36.1 °F 83% 29.86 in 7.0 mi SSE 10.4 mph 16.1 mph 0.01 in Rain Light Rain
3:35 AM 41.0 °F 33.9 °F 36.5 °F 84% 29.83 in 10.0 mi SSE 12.7 mph 17.3 mph 0.03 in Rain Light Rain
3:55 AM 41.0 °F 34.7 °F 36.5 °F 84% 29.82 in 10.0 mi SSE 10.4 mph 17.3 mph 0.04 in Rain Light Rain
4:15 AM 41.0 °F 34.7 °F 36.5 °F 84% 29.80 in 10.0 mi South 10.4 mph - N/A Rain Light Rain
4:35 AM 41.0 °F 35.2 °F 36.5 °F 84% 29.79 in 5.0 mi SSE 9.2 mph - 0.01 in Rain Light Rain
4:55 AM 42.1 °F 36.6 °F 37.6 °F 84% 29.78 in 7.0 mi SSE 9.2 mph - 0.04 in Rain Light Rain
5:15 AM 43.3 °F 38.1 °F 38.5 °F 83% 29.78 in 10.0 mi South 9.2 mph 16.1 mph N/A   Overcast
5:35 AM 44.6 °F 40.2 °F 38.8 °F 80% 29.77 in 10.0 mi South 8.1 mph - N/A   Overcast
5:55 AM 47.3 °F - 40.8 °F 78% 29.75 in 10.0 mi SSW 20.7 mph 28.8 mph N/A   Overcast
6:15 AM 50.9 °F - 41.9 °F 71% 29.75 in 10.0 mi SSW 20.7 mph 31.1 mph N/A   Overcast
6:35 AM 50.9 °F - 41.9 °F 71% 29.75 in 10.0 mi SW 15.0 mph 24.2 mph N/A   Mostly Cloudy
6:55 AM 50.9 °F - 41.0 °F 69% 29.74 in 10.0 mi SW 17.3 mph 26.5 mph N/A   Overcast
7:15 AM 50.9 °F - 41.4 °F 70% 29.74 in 10.0 mi SW 13.8 mph 29.9 mph N/A   Overcast
7:35 AM 50.9 °F - 41.5 °F 70% 29.74 in 10.0 mi SW 16.1 mph 26.5 mph N/A   Overcast
7:55 AM 50.9 °F - 41.7 °F 71% 29.74 in 10.0 mi SW 13.8 mph 25.3 mph N/A   Overcast
8:14 AM 50.9 °F - 41.5 °F 70% 29.73 in 10.0 mi SW 17.3 mph 27.6 mph N/A   Overcast
8:35 AM 50.9 °F - 41.9 °F 71% 29.73 in 10.0 mi SW 15.0 mph 23.0 mph N/A   Overcast
8:55 AM 50.9 °F - 41.9 °F 71% 29.74 in 10.0 mi SW 19.6 mph 27.6 mph N/A   Overcast
9:14 AM 50.9 °F - 41.9 °F 71% 29.73 in 10.0 mi SW 17.3 mph 25.3 mph N/A   Overcast
9:35 AM 50.9 °F - 41.5 °F 70% 29.72 in 10.0 mi SW 16.1 mph 24.2 mph N/A   Overcast
9:55 AM 50.9 °F - 41.5 °F 70% 29.72 in 10.0 mi WSW 23.0 mph 29.9 mph N/A   Overcast
10:15 AM 50.9 °F - 41.2 °F 69% 29.73 in 10.0 mi WSW 20.7 mph 27.6 mph N/A   Overcast
10:35 AM 51.1 °F - 40.5 °F 67% 29.73 in 10.0 mi WSW 17.3 mph 27.6 mph N/A   Overcast
10:55 AM 50.9 °F - 40.8 °F 68% 29.73 in 10.0 mi WSW 20.7 mph 27.6 mph N/A   Mostly Cloudy
11:15 AM 50.9 °F - 41.0 °F 69% 29.73 in 10.0 mi WSW 17.3 mph 21.9 mph N/A   Scattered Clouds
11:35 AM 50.9 °F - 42.8 °F 74% 29.74 in 10.0 mi WSW 12.7 mph 24.2 mph N/A   Overcast
11:55 AM 50.9 °F - 43.0 °F 74% 29.74 in 10.0 mi WSW 17.3 mph 23.0 mph N/A   Overcast
12:15 PM 50.9 °F - 43.5 °F 76% 29.74 in 10.0 mi WSW 15.0 mph 23.0 mph N/A   Overcast
12:35 PM 50.9 °F - 42.8 °F 74% 29.74 in 10.0 mi WSW 16.1 mph 26.5 mph N/A   Overcast
12:54 PM 50.9 °F - 43.0 °F 74% 29.74 in 10.0 mi WSW 18.4 mph 25.3 mph N/A   Overcast
1:15 PM 50.9 °F - 40.5 °F 67% 29.74 in 10.0 mi West 17.3 mph 25.3 mph N/A   Overcast
1:35 PM 50.9 °F - 40.6 °F 68% 29.74 in 10.0 mi West 16.1 mph 26.5 mph N/A   Overcast
1:54 PM 50.9 °F - 39.7 °F 66% 29.75 in 10.0 mi WNW 16.1 mph 28.8 mph N/A   Overcast
2:15 PM 50.9 °F - 39.4 °F 65% 29.76 in 10.0 mi West 12.7 mph 20.7 mph N/A   Overcast
2:35 PM 50.9 °F - 40.1 °F 67% 29.75 in 10.0 mi West 8.1 mph 19.6 mph N/A   Overcast
2:54 PM 50.9 °F - 40.3 °F 67% 29.76 in 10.0 mi West 11.5 mph 19.6 mph N/A   Overcast
3:15 PM 50.9 °F - 40.3 °F 67% 29.77 in 10.0 mi West 13.8 mph 21.9 mph N/A   Overcast
3:35 PM 50.9 °F - 39.7 °F 66% 29.78 in 10.0 mi West 15.0 mph 21.9 mph N/A   Overcast
3:54 PM 50.9 °F - 39.4 °F 65% 29.79 in 10.0 mi West 17.3 mph 28.8 mph N/A   Overcast
4:15 PM 50.9 °F - 39.7 °F 66% 29.80 in 10.0 mi West 12.7 mph 26.5 mph N/A   Overcast
4:35 PM 50.9 °F - 40.3 °F 67% 29.81 in 10.0 mi West 15.0 mph 25.3 mph N/A   Overcast
4:54 PM 50.9 °F - 40.3 °F 67% 29.82 in 10.0 mi West 13.8 mph 23.0 mph N/A   Overcast
5:15 PM 50.9 °F - 40.8 °F 68% 29.82 in 10.0 mi West 15.0 mph 20.7 mph N/A   Overcast
5:35 PM 48.4 °F - 38.5 °F 69% 29.83 in 10.0 mi West 15.0 mph 27.6 mph N/A   Overcast
5:54 PM 48.4 °F - 38.3 °F 68% 29.84 in 10.0 mi West 10.4 mph 25.3 mph N/A   Overcast
6:15 PM 48.4 °F - 37.2 °F 65% 29.85 in 10.0 mi WNW 12.7 mph 25.3 mph N/A   Overcast
6:35 PM 48.4 °F - 36.7 °F 64% 29.86 in 10.0 mi West 18.4 mph 28.8 mph N/A   Overcast
6:55 PM 48.4 °F - 36.0 °F 62% 29.87 in 10.0 mi WNW 16.1 mph 26.5 mph N/A   Overcast
7:15 PM 48.4 °F - 35.6 °F 61% 29.88 in 10.0 mi WNW 13.8 mph 25.3 mph N/A   Overcast
7:35 PM 46.0 °F 39.9 °F 34.0 °F 63% 29.89 in 10.0 mi NW 13.8 mph 19.6 mph N/A   Overcast
7:55 PM 45.9 °F 39.7 °F 34.0 °F 63% 29.90 in 10.0 mi WNW 13.8 mph 21.9 mph N/A   Overcast
8:15 PM 45.3 °F 39.0 °F 32.0 °F 60% 29.91 in 10.0 mi WNW 13.8 mph 24.2 mph N/A   Overcast
8:35 PM 44.8 °F 38.7 °F 30.9 °F 58% 29.91 in 10.0 mi WNW 12.7 mph 24.2 mph N/A   Overcast
8:55 PM 44.6 °F 38.8 °F 30.4 °F 57% 29.91 in 10.0 mi NW 11.5 mph 27.6 mph N/A   Overcast
9:15 PM 44.6 °F 38.1 °F 29.8 °F 56% 29.91 in 10.0 mi WNW 13.8 mph 21.9 mph N/A   Overcast
9:35 PM 44.6 °F 38.1 °F 30.0 °F 57% 29.91 in 10.0 mi NW 13.8 mph 21.9 mph N/A   Overcast
9:55 PM 44.6 °F 38.8 °F 31.1 °F 59% 29.91 in 10.0 mi WNW 11.5 mph 17.3 mph N/A   Overcast
10:15 PM 44.2 °F 38.0 °F 30.9 °F 60% 29.92 in 10.0 mi West 12.7 mph 18.4 mph N/A   Overcast
10:35 PM 44.2 °F 40.3 °F 31.3 °F 60% 29.91 in 10.0 mi WNW 6.9 mph 19.6 mph N/A   Overcast
10:55 PM 44.1 °F 38.1 °F 30.7 °F 59% 29.91 in 10.0 mi WNW 11.5 mph 19.6 mph N/A   Overcast
11:15 PM 43.9 °F 37.9 °F 30.9 °F 60% 29.91 in 10.0 mi WNW 11.5 mph 19.6 mph N/A   Overcast
11:35 PM 43.9 °F 36.5 °F 31.5 °F 62% 29.91 in 10.0 mi WNW 16.1 mph 24.2 mph N/A   Overcast
11:55 PM 43.5 °F 35.8 °F 32.0 °F 64% 29.92 in 10.0 mi WNW 17.3 mph 26.5 mph N/A   Overcast